Regional Weather Roundup
Issued by NWS Albany, NY

Home | Current Version | Previous Version | Text Only | Print | Product List | Glossary On
Versions: 1 2 3 4 5 6 7 8 9 10 11 12 13 14 15 16 17 18 19 20 21 22 23 24 25 26 27 28 29 30 31 32 33 34 35 36 37 38 39 40 41 42 43 44 45 46 47 48 49 50
000
ASUS41 KALY 021610
RWRALY

NEW YORK STATE HOURLY WEATHER ROUNDUP
NATIONAL WEATHER SERVICE ALBANY NY
1200 PM EDT THU JUL 02 2015

NOTE: "FAIR" INDICATES FEW OR NO CLOUDS BELOW 12,000 FEET WITH NO
SIGNIFICANT WEATHER AND/OR NO OBSTRUCTIONS TO VISIBILITY.

NYZ032-033-038>043-046>054-057>066-NYZ062>081-021700-
EAST


CITY           SKY/WX    TMP DP  RH WIND       PRES   REMARKS
ALBANY         MOSUNNY   72  55  55 NW9       29.92F
GLENS FALLS    CLOUDY    70  51  51 W9        29.90S
POUGHKEEPSIE   MOSUNNY   76  58  53 N3        29.91F
NEWBURGH       MOSUNNY   73  59  60 CALM      29.94S
MONTGOMERY     PTSUNNY   74  59  59 S5        29.92F
WHITE PLAINS   MOSUNNY   77  57  50 CALM      29.91F
ISLIP          CLOUDY    78  60  53 CALM      29.89F
NEW YORK CITY  PTSUNNY   76  56  49 E5        29.90F
CENTRAL PARK   MOSUNNY   76  60  57 CALM      29.93F
$$

NYZ005>009-017-018-044>046-055-056-021700-
CENTRAL


CITY           SKY/WX    TMP DP  RH WIND       PRES   REMARKS
FULTON         MOSUNNY   67  50  54 NW5       29.97S
SYRACUSE       PTSUNNY   67  55  65 NW6       29.95S
ROME           CLOUDY    65  54  67 NW7       29.96S
ELMIRA         PTSUNNY   70  57  63 CALM      29.94F
BINGHAMTON     CLOUDY    67  54  63 NW7       29.96F
MONTICELLO     MOSUNNY   70  57  64 W9        29.97S
$$

NYZ026>034-041>043-021700-
NORTH


CITY           SKY/WX    TMP DP  RH WIND       PRES   REMARKS
WATERTOWN      SUNNY     66  52  60 W13       29.96R
FORT DRUM      NOT AVBL
MASSENA        SUNNY     68  48  48 W12G23    29.91R
SARANAC LAKE   MOSUNNY   62  42  47 W12G20    29.92R
PLATTSBURGH    SUNNY     70  40  33 SW8G17    29.88S
$$

NYZ001>004-010>016-019>021-021700-
WEST


CITY           SKY/WX    TMP DP  RH WIND       PRES   REMARKS
NIAGARA FALLS  MOSUNNY   67  51  56 NE9       29.99S
BUFFALO        PTSUNNY   67  49  52 N6        29.98S
DUNKIRK        MOSUNNY   65  58  78 N9        29.99S
JAMESTOWN      MOSUNNY   64  52  63 N6        30.00R
WELLSVILLE     PTSUNNY   65  53  65 CALM      30.00S
ROCHESTER      PTSUNNY   67  52  58 CALM      29.98F
PENN YAN       PTSUNNY   69  56  62 NW3       29.97F
$$

             KEY
       WCI = WIND CHILL INDEX
       VSB = VISIBILITY
       HX  = HEAT INDEX
$$



USA.gov is the U.S. government's official web portal to all federal, state and local government web resources and services.